Location: Ottawa
(45.4170°N, 75.7000°W)
Time: 22:58:09
(UTC-04:00)

ISS - Pass Details

Date: 18 May 2021
Orbit: 417 x 422 km, 51.6° (Epoch: 13 June)

Event Time Altitude Azimuth Distance (km) Brightness Sun altitude
Rises 01:30:03 0° 298° (WNW) 2,371 0.3 -24.6°
Reaches altitude 10° 01:32:14 10° 306° (NW) 1,506 -0.6 -24.5°
Enters shadow 01:34:13 29° 328° (NNW) 811 -1.9 -24.5°
